Wind_Speed
46 46 47 46 46 46 45 46 46 46 46 46 46 46 46 46 46 46 47 48 49 49 49 49 50 51 51 52 52 52 52 51 50 49 49 50 51 51 50 51 50 51 51
45 45 46 46 46 45 45 45 45 46 46 46 46 46 46 46 46 47 47 48 49 49 49 50 50 51 51 51 51 51 50 50 50 49 49 50 50 50 50 50 51 51 51
43 43 44 45 45 45 45 46 46 46 47 47 47 46 46 46 46 47 47 48 49 49 50 50 50 50 50 49 50 50 51 50 50 50 50 50 50 50 49 49 49 50 51
43 43 44 44 45 45 46 46 47 47 47 47 47 46 46 47 47 48 48 48 48 49 49 49 49 48 47 47 47 47 48 48 49 49 49 49 49 48 48 49 48 48 49
41 42 43 43 43 44 44 45 46 46 47 46 47 46 46 46 47 47 47 47 47 48 48 48 48 48 47 46 46 46 46 47 47 47 47 47 47 47 47 48 49 49 49
40 41 42 43 43 43 43 43 44 45 45 46 46 46 46 46 47 47 47 47 47 47 47 47 47 46 46 46 45 45 45 45 46 46 46 45 46 47 47 48 49 49 50
40 41 41 41 41 42 43 43 43 43 44 44 45 45 45 46 46 47 47 47 47 47 47 47 46 45 44 44 44 43 44 44 44 45 45 45 44 45 46 46 47 48 49
38 39 39 40 40 41 41 42 42 42 43 43 43 44 44 44 45 46 46 46 46 46 46 45 44 44 44 43 43 43 43 43 44 43 44 44 45 45 45 45 45 46 47
37 38 38 39 40 40 40 41 42 42 43 43 43 43 44 44 44 44 45 45 45 45 45 44 43 43 42 42 42 42 42 42 42 42 42 42 43 43 43 44 44 45 45
38 38 38 38 39 39 40 40 41 41 41 41 42 42 42 42 42 42 42 42 42 42 42 42 41 41 41 41 41 41 40 40 40 40 40 41 41 42 43 43 43 43 43
38 38 38 38 38 38 38 39 39 38 38 39 39 39 40 39 40 39 40 40 40 40 39 39 39 40 40 40 39 39 39 39 39 39 39 40 40 41 42 42 42 42 42
37 37 37 37 38 38 38 38 38 38 37 37 37 38 39 39 38 38 39 38 38 38 38 37 37 37 38 38 38 38 38 38 38 38 39 39 39 39 40 40 41 41 40
36 37 37 37 37 37 37 37 37 37 37 36 36 37 37 38 38 37 37 37 36 36 36 36 36 36 36 37 37 37 38 38 38 37 37 37 37 37 38 38 38 39 38
35 36 36 36 36 36 36 37 36 36 36 36 35 36 36 36 36 36 35 35 34 34 34 34 35 35 36 36 37 37 37 37 37 37 36 35 36 36 36 36 36 36 36
34 35 35 35 35 35 35 35 35 35 35 35 35 35 35 35 35 35 34 34 34 34 34 34 34 34 35 35 36 36 36 36 36 35 35 35 35 35 34 34 34 34 35
34 34 34 34 34 34 34 34 34 34 34 34 34 33 33 33 33 33 33 33 33 33 33 33 33 33 34 34 34 34 35 35 34 34 34 33 33 33 33 33 33 34 34
33 33 33 33 33 33 32 32 32 32 32 32 32 32 32 32 32 32 32 32 32 33 33 33 33 33 33 33 33 33 33 33 33 33 33 33 33 32 32 32 32 32 32
32 32 32 32 32 32 32 31 31 31 31 31 31 31 31 31 31 31 31 31 31 32 32 32 32 33 32 32 32 31 31 32 32 32 32 31 31 31 31 31 32 32 31
31 31 31 32 32 31 31 31 31 30 30 30 30 30 30 30 31 30 30 30 30 31 31 31 31 31 31 31 30 30 30 30 30 29 29 29 29 29 30 30 30 30 30
30 31 31 30 30 30 30 30 30 30 29 29 29 29 29 29 29 29 30 30 30 30 30 30 30 30 29 29 29 29 29 28 28 27 27 27 28 29 29 29 29 29 28
30 30 30 30 29 30 30 30 29 29 28 28 28 28 29 29 29 29 29 29 28 28 29 29 28 28 28 28 28 27 27 27 26 26 26 27 27 28 27 27 27 27 26
28 28 28 28 28 28 28 28 27 27 27 27 27 27 28 28 27 27 27 27 27 27 27 27 27 27 27 27 26 25 25 25 25 25 25 26 26 26 26 25 25 25 24
27 26 26 26 26 26 26 26 26 26 26 26 26 26 26 26 26 26 26 26 25 26 26 25 25 25 25 25 25 25 24 24 24 24 25 25 25 24 23 23 23 23 23
25 24 24 24 24 24 24 24 24 24 24 24 25 25 25 26 26 26 25 25 25 25 25 25 25 24 25 25 24 24 24 24 24 24 24 24 23 23 22 22 22 21 21
23 23 23 23 23 23 23 23 23 23 23 24 24 25 25 25 25 25 25 25 24 24 24 24 24 24 24 24 23 23 24 24 24 23 23 23 22 22 21 21 20 20 20
22 22 22 22 22 22 22 22 22 22 22 23 23 23 24 24 24 24 24 23 23 23 23 24 24 23 23 23 23 23 23 22 22 22 22 21 21 21 20 19 19 18 18
Wind_Direction
264 265 265 265 266 267 268 267 268 269 270 271 271 271 271 272 273 274 276 276 276 275 276 276 278 278 278 278 277 277 277 276 275 273 272 271 271 272 272 273 273 273 271
265 266 266 266 266 266 267 267 268 269 270 270 270 271 272 273 274 275 276 277 277 276 276 277 279 279 279 278 277 277 276 276 275 275 273 272 272 272 272 273 273 273 270
265 266 266 265 266 267 267 268 269 270 270 270 271 271 272 273 274 275 277 278 278 277 278 279 280 280 280 279 278 277 276 276 275 275 274 273 272 271 271 272 273 272 270
266 266 266 266 266 267 268 268 269 270 271 271 271 272 272 272 273 275 277 278 278 278 279 280 281 281 280 280 280 279 278 278 276 275 275 273 271 271 270 271 273 274 271
266 266 266 267 267 268 268 268 269 270 270 271 271 273 273 274 275 276 277 278 279 280 279 279 280 281 280 281 281 281 280 279 277 276 276 274 271 271 271 271 272 274 273
268 268 268 268 268 268 268 269 270 270 271 270 271 272 273 274 276 276 278 279 280 280 280 279 279 280 280 281 281 281 281 281 278 277 276 274 272 272 272 272 273 274 275
268 269 269 269 268 268 269 270 271 271 272 271 271 273 274 275 275 277 279 281 281 281 281 279 279 280 280 281 281 281 282 282 280 278 276 275 273 273 274 274 275 275 276
270 270 269 269 270 270 270 271 272 272 273 273 273 274 275 276 277 278 279 281 282 282 281 280 279 279 280 281 280 281 282 282 281 280 278 276 274 274 275 276 276 276 276
271 271 271 270 270 270 271 272 273 273 274 274 275 275 276 277 279 279 281 283 283 282 281 281 280 279 279 279 279 280 281 281 281 281 279 277 275 275 276 277 278 277 277
271 272 272 272 272 272 272 273 274 274 274 275 275 277 278 279 280 280 281 283 283 282 281 280 279 279 279 279 279 280 280 281 282 282 280 278 277 276 277 278 279 278 278
272 272 272 273 273 273 274 275 275 274 275 276 276 277 278 280 280 280 281 282 283 282 281 281 280 279 278 278 279 279 280 281 282 283 282 281 280 278 277 278 279 280 280
274 273 273 273 274 274 274 275 275 275 276 276 277 277 278 280 280 280 281 282 282 282 281 281 281 280 278 278 279 279 281 282 282 283 283 282 281 279 278 279 279 280 281
275 275 274 274 274 274 274 275 275 276 276 276 277 277 279 279 279 280 281 283 283 283 282 282 281 281 279 278 279 279 280 282 283 283 284 283 282 280 278 278 279 279 281
276 276 275 274 274 274 275 274 275 275 275 276 277 278 279 280 280 280 281 281 282 282 282 282 282 281 280 279 279 279 281 282 283 283 283 283 283 281 279 278 279 280 281
275 276 275 275 274 275 275 275 275 275 275 276 277 278 279 280 280 280 280 280 280 281 281 282 282 281 281 280 279 280 281 281 282 282 283 283 283 282 281 280 280 280 282
275 275 275 274 274 274 275 275 276 276 276 276 276 278 279 280 280 280 280 280 281 281 281 282 282 283 283 282 281 280 281 281 281 282 283 285 285 284 283 283 283 284 283
275 275 274 274 274 274 275 276 276 277 277 277 277 278 279 279 280 281 281 281 282 282 282 282 283 285 285 284 282 281 281 282 283 283 284 285 285 285 285 285 284 283 283
275 274 274 274 274 275 276 276 276 277 277 277 277 279 279 280 281 282 282 283 284 285 285 285 285 286 287 286 285 284 283 284 285 285 285 285 285 285 285 284 284 284 284
275 275 274 275 275 275 276 277 277 277 277 277 278 279 281 282 284 284 284 284 286 287 287 287 287 288 288 288 287 287 286 286 285 285 285 285 285 285 285 284 285 284 284
276 276 276 276 276 276 276 277 277 277 277 278 279 280 281 283 285 285 285 286 287 288 288 288 288 288 288 288 288 287 287 286 285 285 285 286 287 288 287 286 286 287 286
277 277 277 277 277 276 276 277 277 277 277 278 279 280 281 283 284 285 286 287 288 288 288 288 288 288 288 288 288 287 287 287 286 285 286 287 289 289 289 288 287 287 287
278 279 279 277 276 277 276 277 276 276 276 278 279 279 281 282 284 285 285 287 288 288 289 287 288 288 289 289 289 289 288 287 287 286 286 288 289 289 288 288 288 287 287
278 278 278 277 276 276 276 277 277 276 277 278 279 280 282 283 284 284 285 286 287 289 290 289 290 290 290 289 289 289 289 289 288 287 288 290 290 289 288 289 290 289 288
277 277 277 277 276 276 277 277 278 278 278 278 279 280 282 283 284 285 286 287 289 290 290 290 290 290 291 290 290 289 289 289 288 287 289 290 290 288 287 288 288 288 288
277 278 277 277 276 276 277 278 279 279 279 279 280 281 281 283 284 286 286 287 289 290 291 291 291 291 291 290 289 289 289 289 288 287 289 290 289 288 287 287 287 287 289
277 277 276 276 275 276 277 279 280 280 280 280 281 281 282 284 285 287 287 288 288 290 291 291 290 290 290 290 289 289 289 289 288 288 289 289 290 290 288 287 287 288 289
Height
5654 5655 5655 5655 5656 5656 5656 5656 5656 5655 5655 5654 5654 5654 5653 5653 5652 5651 5650 5649 5648 5646 5645 5643 5642 5641 5640 5639 5637 5636 5635 5634 5634 5635 5634 5634 5634 5634 5634 5634 5634 5634 5634
5643 5643 5643 5643 5644 5644 5644 5644 5644 5644 5643 5643 5642 5642 5642 5641 5640 5639 5638 5637 5635 5634 5632 5631 5630 5628 5626 5625 5624 5623 5622 5621 5621 5621 5621 5621 5620 5621 5621 5621 5621 5621 5621
5631 5632 5632 5632 5632 5632 5632 5632 5632 5632 5631 5631 5631 5630 5630 5629 5628 5627 5626 5625 5623 5621 5620 5618 5617 5615 5613 5612 5611 5609 5608 5608 5607 5607 5607 5607 5607 5607 5607 5608 5608 5608 5608
5620 5620 5621 5621 5621 5621 5621 5621 5621 5620 5620 5619 5619 5618 5618 5617 5616 5615 5614 5612 5611 5609 5607 5606 5604 5602 5601 5599 5598 5596 5595 5595 5594 5593 5593 5593 5593 5593 5594 5594 5594 5594 5594
5609 5609 5609 5609 5609 5609 5609 5608 5608 5608 5608 5607 5607 5606 5606 5605 5604 5603 5601 5600 5598 5597 5595 5593 5591 5590 5588 5586 5585 5584 5583 5581 5580 5580 5579 5579 5580 5580 5580 5581 5581 5582 5582
5598 5598 5598 5598 5598 5597 5597 5596 5596 5596 5596 5595 5595 5595 5594 5593 5592 5590 5589 5587 5586 5584 5582 5580 5579 5578 5576 5575 5573 5571 5570 5569 5567 5567 5566 5566 5566 5567 5567 5568 5568 5568 5569
5588 5587 5587 5586 5586 5586 5585 5585 5585 5584 5584 5584 5583 5583 5582 5581 5579 5578 5576 5575 5573 5571 5570 5568 5567 5566 5564 5563 5561 5560 5558 5556 5555 5554 5554 5553 5554 5555 5555 5555 5555 5554 5554
5577 5576 5576 5575 5575 5575 5574 5574 5573 5573 5573 5572 5572 5571 5570 5569 5567 5566 5564 5563 5561 5559 5557 5556 5555 5553 5552 5551 5550 5549 5547 5545 5544 5543 5542 5542 5542 5542 5542 5542 5541 5541 5541
5566 5566 5565 5564 5564 5564 5563 5563 5562 5562 5561 5561 5560 5560 5558 5557 5556 5554 5553 5551 5550 5547 5546 5544 5543 5542 5541 5540 5539 5538 5536 5534 5532 5531 5530 5530 5530 5530 5529 5529 5528 5528 5528
5556 5555 5554 5554 5553 5553 5552 5552 5551 5551 5550 5549 5549 5548 5547 5546 5544 5543 5541 5540 5538 5537 5535 5533 5532 5530 5529 5528 5528 5527 5526 5524 5522 5521 5519 5519 5518 5518 5517 5516 5515 5515 5514
5545 5545 5544 5543 5543 5542 5542 5541 5540 5540 5539 5538 5538 5537 5536 5535 5533 5532 5530 5528 5527 5525 5524 5522 5521 5519 5518 5517 5516 5516 5515 5514 5512 5511 5509 5508 5507 5506 5505 5504 5503 5502 5501
5535 5534 5533 5533 5532 5532 5531 5530 5530 5529 5529 5528 5527 5526 5525 5524 5522 5521 5519 5517 5516 5515 5513 5511 5510 5509 5508 5507 5506 5505 5504 5503 5502 5501 5499 5498 5497 5496 5494 5493 5491 5490 5488
5524 5523 5523 5522 5522 5521 5521 5520 5519 5519 5518 5517 5517 5516 5515 5513 5512 5510 5509 5507 5506 5504 5503 5501 5499 5498 5497 5496 5495 5494 5494 5493 5491 5490 5489 5488 5486 5485 5484 5482 5481 5479 5478
5514 5513 5512 5512 5511 5510 5510 5510 5509 5508 5508 5507 5507 5506 5504 5503 5502 5501 5499 5498 5496 5495 5493 5491 5490 5488 5487 5486 5485 5484 5483 5482 5481 5480 5478 5477 5476 5474 5473 5472 5471 5469 5468
5504 5503 5503 5502 5501 5500 5500 5499 5499 5498 5497 5497 5496 5495 5494 5493 5491 5490 5489 5488 5487 5485 5484 5482 5480 5479 5477 5476 5475 5474 5473 5471 5471 5470 5468 5467 5466 5464 5463 5461 5460 5459 5458
5494 5494 5493 5492 5491 5491 5490 5490 5488 5488 5487 5487 5486 5485 5484 5483 5482 5481 5479 5478 5477 5475 5474 5473 5471 5470 5468 5466 5465 5464 5463 5462 5460 5459 5458 5457 5455 5454 5453 5451 5450 5449 5448
5485 5484 5483 5483 5482 5482 5481 5480 5480 5479 5478 5477 5477 5476 5475 5474 5473 5471 5470 5469 5467 5466 5465 5463 5462 5460 5459 5457 5456 5454 5453 5452 5451 5449 5448 5447 5445 5444 5443 5442 5440 5439 5438
5475 5474 5474 5473 5473 5472 5472 5471 5471 5470 5469 5469 5468 5467 5466 5465 5464 5463 5461 5460 5459 5457 5456 5454 5453 5451 5450 5448 5446 5445 5444 5443 5441 5440 5439 5437 5436 5435 5433 5432 5431 5430 5428
5466 5465 5465 5464 5463 5463 5463 5462 5462 5461 5460 5460 5459 5458 5457 5456 5455 5454 5452 5452 5450 5448 5447 5445 5443 5442 5440 5439 5437 5436 5435 5434 5432 5431 5430 5428 5427 5426 5424 5423 5422 5421 5419
5457 5456 5455 5455 5454 5454 5454 5453 5453 5452 5451 5451 5451 5450 5449 5448 5447 5445 5444 5443 5441 5440 5438 5436 5435 5433 5432 5430 5429 5427 5426 5425 5423 5422 5421 5420 5418 5417 5415 5414 5413 5412 5411
5448 5447 5447 5446 5446 5445 5445 5444 5444 5443 5443 5443 5442 5441 5440 5440 5439 5437 5436 5434 5433 5431 5430 5428 5426 5425 5423 5422 5420 5419 5418 5416 5415 5414 5413 5411 5410 5408 5407 5405 5404 5403 5402
5440 5439 5438 5438 5437 5437 5436 5436 5435 5435 5434 5434 5433 5433 5432 5431 5430 5429 5428 5426 5425 5423 5421 5420 5418 5417 5415 5414 5412 5411 5410 5408 5407 5406 5405 5403 5402 5400 5399 5398 5396 5395 5394
5432 5431 5430 5430 5429 5429 5428 5428 5427 5427 5426 5426 5425 5425 5424 5423 5422 5421 5420 5418 5417 5415 5414 5412 5411 5409 5407 5406 5404 5403 5402 5401 5399 5398 5397 5396 5394 5393 5392 5390 5389 5388 5387
5424 5423 5423 5422 5421 5421 5421 5420 5420 5419 5419 5418 5418 5417 5416 5416 5415 5414 5412 5411 5410 5408 5406 5405 5403 5402 5400 5398 5397 5395 5394 5393 5391 5390 5389 5388 5387 5385 5384 5383 5382 5381 5380
5417 5416 5416 5415 5415 5414 5414 5413 5413 5412 5412 5411 5410 5410 5409 5408 5407 5406 5405 5403 5402 5401 5399 5398 5396 5394 5393 5391 5390 5388 5387 5385 5384 5383 5382 5380 5379 5378 5378 5376 5375 5375 5374
5410 5409 5409 5408 5408 5407 5407 5406 5406 5405 5405 5404 5403 5402 5402 5401 5400 5399 5397 5396 5395 5394 5392 5390 5389 5387 5386 5384 5383 5381 5380 5378 5377 5376 5375 5374 5373 5372 5371 5370 5369 5369 5368